Location: Le Rocchette
(44.3500°N, 7.8333°E)
Time: 07:24:46
(UTC+00:00)

Lacrosse 5 - Pass Details

Date: 17 November 2019
Orbit: 715 x 724 km, 57.0° (Epoch: 04 December)

Event Time Altitude Azimuth Distance (km) Brightness Sun altitude
Exits shadow 04:42:39 28° 317° (NW) 1,331 2.8 -18.5°
Maximum altitude 04:43:34 30° 336° (NNW) 1,280 2.9 -18.3°
Drops below altitude 10° 04:48:01 10° 38° (NE) 2,204 4.7 -17.6°
Sets 04:50:40 0° 49° (NE) 3,125 5.7 -17.1°
